Orbital Elements at Epoch 2459200.5 (2020-Dec-17.0) TDB
Reference: JPL 32 (heliocentric ecliptic J2000)
Element | Value | Uncertainty (1-sigma) | Units |
e | .0516514952577992 | 5.5333e-08 | |
a | 2.875222710791304 | 1.4816e-08 | au |
q | 2.726713158579751 | 1.557e-07 | au |
i | 3.023638487744233 | 3.7793e-06 | deg |
node | 103.5004154378499 | 8.9368e-05 | deg |
peri | 273.363972058092 | 9.6849e-05 | deg |
M | 168.9541551250917 | 3.7087e-05 | deg |
tp | 2458364.758365170737 (2018-Sep-03.25836517) | 0.00018349 | TDB |
period | 1780.761108336024 4.88 | 1.3765e-05 3.769e-08 | d yr |
n | .2021607493081375 | 1.5626e-09 | deg/d |
Q | 3.023732263002858 | 1.5582e-08 | au |
|
| | Orbit Determination Parameters
Additional Information
|